Location: Deuil
(48.9767°N, 2.3272°E)
Time: 17:32:59
(UTC+00:00)

COSMOS 2251 DEB - Visible Passes

Search period start: 11 August 2022 00:00
Search period end: 21 August 2022 00:00
Orbit: 389 x 438 km, 74.0° (Epoch: 11 August)

Date Brightness Start Highest point End Pass type
(mag) Time Alt. Az. Time Alt. Az. Time Alt. Az.
12 Aug ? 03:30:41 10° SE 03:32:11 13° E 03:33:40 10° ENE visible
14 Aug ? 03:27:47 10° SSE 03:30:21 24° ESE 03:32:56 10° NE visible
16 Aug ? 03:24:16 11° S 03:27:09 45° ESE 03:30:10 10° NE visible
17 Aug ? 02:36:17 11° SE 02:38:07 16° ESE 02:40:10 10° ENE visible
17 Aug ? 04:09:26 10° SW 04:12:15 30° WNW 04:15:06 10° N visible
18 Aug ? 03:20:40 22° SSW 03:22:34 88° E 03:25:43 10° NNE visible
19 Aug ? 02:31:54 24° SE 02:32:44 28° ESE 02:35:29 10° NE visible
19 Aug ? 04:04:45 10° WSW 04:07:06 19° NW 04:09:28 10° N visible
20 Aug ? 01:42:46 10° E 01:42:46 10° E 01:43:16 10° E visible
20 Aug ? 03:15:29 31° WSW 03:16:36 50° WNW 03:19:41 10° NNE visible
